sat.trackr.live / text

‹ back to catalog

UNKNOWN

NORAD 81254

UNKNOWN UNKNOWN UNKNOWN

§ Identity

Operator
Country
Launch date
Launch site
Launch vehicle
Mass (kg)
RCS (m²)

External: N2YO · Heavens-Above

§ Orbital elements

Epoch: 2026-09-18T02:05:37.486752Z

Period
102.60 min
Inclination
100.3819°
Eccentricity
0.0071209
Mean motion
14.03551706 rev/d
Perigee alt
829.8 km
Apogee alt
933.2 km
Semi-major
7,259.7 km
B*
2.0732e-3
RAAN
6.8321°
Arg perigee
53.6491°
Mean anomaly
307.1216°
Rev number
65,205

§ Raw data

UNKNOWN1 81254U          26261.08723943  .00003271  00000+0  20732-2 0  99912 81254 100.3819   6.8321 0071209  53.6491 307.1216 14.03551706652051

JSON: /api/v1/satellites/81254 · /tle

For live sub-satellite position, see the globe view (requires WebGL).

§ Visibility from observer

Set your observer location to see the next 7 days of passes ≥ 10°. The values pass through the URL so the page stays shareable.

No JS? Fill the form by hand. The geolocation button needs JavaScript.